2023/10/20 00:00:00,24.3,10.3
2023/10/20 00:10:00,24.2,10.7
2023/10/20 00:20:00,24.1,10.3
2023/10/20 00:30:00,24.0,10.6
2023/10/20 00:40:00,24.1,10.3
2023/10/20 00:50:00,24.3,10.6
2023/10/20 01:00:00,24.3,10.7
2023/10/20 01:10:00,24.3,10.8
2023/10/20 01:20:00,24.2,11.0
2023/10/20 01:30:00,24.2,11.0
2023/10/20 01:40:00,24.3,11.0
2023/10/20 01:50:00,24.3,11.7
2023/10/20 02:00:00,24.1,11.5
2023/10/20 02:10:00,24.0,11.7
2023/10/20 02:20:00,24.2,11.7
2023/10/20 02:30:00,24.2,11.8
2023/10/20 02:40:00,24.2,11.7
2023/10/20 02:50:00,24.1,11.7
2023/10/20 03:00:00,24.2,11.7
2023/10/20 03:10:00,24.1,11.7
2023/10/20 03:20:00,24.1,12.0
2023/10/20 03:30:00,24.2,11.9
2023/10/20 03:40:00,24.3,11.3
2023/10/20 03:50:00,24.4,12.0
2023/10/20 04:00:00,24.4,12.3
2023/10/20 04:10:00,24.4,12.8
2023/10/20 04:20:00,24.4,13.3
2023/10/20 04:30:00,24.5,13.2
2023/10/20 04:40:00,24.6,13.1
2023/10/20 04:50:00,24.6,13.4
2023/10/20 05:00:00,24.6,13.7
2023/10/20 05:10:00,24.5,14.1
2023/10/20 05:20:00,24.6,13.9
2023/10/20 05:30:00,24.4,13.4
2023/10/20 05:40:00,24.5,13.4
2023/10/20 05:50:00,24.5,13.6
2023/10/20 06:00:00,24.7,13.5
2023/10/20 06:10:00,25.1,13.2
2023/10/20 06:20:00,25.1,13.5
2023/10/20 06:30:00,26.2,13.7
2023/10/20 06:40:00,25.6,14.0
2023/10/20 06:50:00,25.6,14.6
2023/10/20 07:00:00,25.6,14.7
2023/10/20 07:10:00,25.8,15.0
2023/10/20 07:20:00,25.7,14.9
2023/10/20 07:30:00,25.9,14.9
2023/10/20 07:40:00,25.5,14.5
2023/10/20 07:50:00,25.4,15.0
2023/10/20 08:00:00,25.1,14.8
2023/10/20 08:10:00,24.7,14.7
2023/10/20 08:20:00,25.0,15.1
2023/10/20 08:30:00,25.8,14.9
2023/10/20 08:40:00,26.4,14.8
2023/10/20 08:50:00,26.3,14.8
2023/10/20 09:00:00,26.0,14.8
2023/10/20 09:10:00,25.5,14.7
2023/10/20 09:20:00,26.4,13.7
2023/10/20 09:30:00,27.0,14.4
2023/10/20 09:40:00,25.2,14.3
2023/10/20 09:50:00,25.4,13.6
2023/10/20 10:00:00,25.5,14.1
2023/10/20 10:10:00,26.7,13.8
2023/10/20 10:20:00,25.4,13.6
2023/10/20 10:30:00,25.5,13.9
2023/10/20 10:40:00,26.6,13.9
2023/10/20 10:50:00,34.5,13.4
2023/10/20 11:00:00,35.3,13.5
2023/10/20 11:10:00,30.9,13.6
2023/10/20 11:20:00,31.4,13.2
2023/10/20 11:30:00,28.6,13.5
2023/10/20 11:40:00,27.6,13.7
2023/10/20 11:50:00,34.3,13.5
2023/10/20 12:00:00,36.9,13.5
2023/10/20 12:10:00,---,13.8
2023/10/20 12:20:00,39.2,13.8
2023/10/20 12:30:00,39.3,13.5
2023/10/20 12:40:00,34.9,13.2
2023/10/20 12:50:00,34.0,13.3
2023/10/20 13:00:00,35.8,13.2
2023/10/20 13:10:00,33.1,13.2
2023/10/20 13:20:00,31.5,13.4
2023/10/20 13:30:00,34.4,13.2
2023/10/20 13:40:00,40.1,12.9
2023/10/20 13:50:00,34.8,12.9
2023/10/20 14:00:00,33.0,13.0
2023/10/20 14:10:00,35.8,12.7
2023/10/20 14:20:00,33.1,12.7
2023/10/20 14:30:00,26.7,12.4
2023/10/20 14:40:00,27.6,12.2
2023/10/20 14:50:00,30.5,12.1
2023/10/20 15:00:00,27.5,12.3
2023/10/20 15:10:00,26.8,12.1
2023/10/20 15:20:00,29.5,12.0
2023/10/20 15:30:00,28.6,12.1
2023/10/20 15:40:00,32.1,12.7
2023/10/20 15:50:00,---,13.3
2023/10/20 16:00:00,47.8,13.1
2023/10/20 16:10:00,29.5,12.5
2023/10/20 16:20:00,25.8,12.2
2023/10/20 16:30:00,26.4,12.0
2023/10/20 16:40:00,28.3,11.5
2023/10/20 16:50:00,34.0,11.3
2023/10/20 17:00:00,26.4,10.9
2023/10/20 17:10:00,26.7,10.7
2023/10/20 17:20:00,24.9,10.2
2023/10/20 17:30:00,24.7, 9.9
2023/10/20 17:40:00,24.7, 9.8
2023/10/20 17:50:00,24.5, 9.9
2023/10/20 18:00:00,24.4,10.1
2023/10/20 18:10:00,24.1,10.1
2023/10/20 18:20:00,24.3,10.3
2023/10/20 18:30:00,24.3,10.2
2023/10/20 18:40:00,24.4,10.1
2023/10/20 18:50:00,24.4,10.2
2023/10/20 19:00:00,24.4,10.1
2023/10/20 19:10:00,24.2,10.0
2023/10/20 19:20:00,24.3, 9.9
2023/10/20 19:30:00,24.3, 9.9
2023/10/20 19:40:00,24.3, 9.7
2023/10/20 19:50:00,24.4, 9.5
2023/10/20 20:00:00,24.3, 8.9
2023/10/20 20:10:00,24.2, 8.8
2023/10/20 20:20:00,24.1, 8.7
2023/10/20 20:30:00,24.3, 9.0
2023/10/20 20:40:00,24.2, 8.9
2023/10/20 20:50:00,24.2, 9.0
2023/10/20 21:00:00,24.3, 9.2
2023/10/20 21:10:00,24.2, 9.2
2023/10/20 21:20:00,24.0, 9.0
2023/10/20 21:30:00,24.0, 9.2
2023/10/20 21:40:00,23.9, 9.1
2023/10/20 21:50:00,24.1, 9.1
2023/10/20 22:00:00,24.0, 9.1
2023/10/20 22:10:00,24.0, 8.9
2023/10/20 22:20:00,24.0, 8.9
2023/10/20 22:30:00,24.0, 8.8
2023/10/20 22:40:00,23.8, 8.8
2023/10/20 22:50:00,23.9, 8.5
2023/10/20 23:00:00,24.1, 8.8
2023/10/20 23:10:00,24.2, 8.7
2023/10/20 23:20:00,24.1, 8.7
2023/10/20 23:30:00,32.0, 8.9
2023/10/20 23:40:00,---, 8.9
2023/10/20 23:50:00,23.9, 8.9
